Year,Month,Day,Hour,Minute,Value (Times are PST for temperature in C)
2018,07,15,00,00,16.70
2018,07,15,00,01,16.80
2018,07,15,00,02,16.90
2018,07,15,00,03,17.00
2018,07,15,00,04,17.20
2018,07,15,00,05,17.50
2018,07,15,00,06,17.70
2018,07,15,00,07,18.10
2018,07,15,00,08,18.50
2018,07,15,00,09,18.80
2018,07,15,00,10,19.20
2018,07,15,00,11,19.40
2018,07,15,00,12,19.70
2018,07,15,00,13,19.90
2018,07,15,00,14,20.10
2018,07,15,00,15,20.30
2018,07,15,00,16,20.50
2018,07,15,00,17,20.50
2018,07,15,00,18,20.60
2018,07,15,00,19,20.60
2018,07,15,00,20,20.50
2018,07,15,00,21,20.50
2018,07,15,00,22,20.50
2018,07,15,00,23,20.40
2018,07,15,00,24,20.30
2018,07,15,00,25,20.30
2018,07,15,00,26,20.30
2018,07,15,00,27,20.20
2018,07,15,00,28,20.20
2018,07,15,00,29,20.10
2018,07,15,00,30,20.00
2018,07,15,00,31,19.90
2018,07,15,00,32,19.90
2018,07,15,00,33,19.80
2018,07,15,00,34,19.70
2018,07,15,00,35,19.60
2018,07,15,00,36,19.60
2018,07,15,00,37,19.50
2018,07,15,00,38,19.40
2018,07,15,00,39,19.30
2018,07,15,00,40,19.10
2018,07,15,00,41,18.90
2018,07,15,00,42,18.50
2018,07,15,00,43,18.30
2018,07,15,00,44,18.10
2018,07,15,00,45,18.00
2018,07,15,00,46,17.90
2018,07,15,00,47,17.80
2018,07,15,00,48,17.60
2018,07,15,00,49,17.50
2018,07,15,00,50,17.40
2018,07,15,00,51,17.40
2018,07,15,00,52,17.30
2018,07,15,00,53,17.20
2018,07,15,00,54,17.10
2018,07,15,00,55,17.10
2018,07,15,00,56,17.00
2018,07,15,00,57,17.00
2018,07,15,00,58,16.90
2018,07,15,00,59,16.90
2018,07,15,01,00,16.90
2018,07,15,01,01,16.90
2018,07,15,01,02,16.90
2018,07,15,01,03,16.90
2018,07,15,01,04,16.90
2018,07,15,01,05,16.90
2018,07,15,01,06,16.80
2018,07,15,01,07,16.80
2018,07,15,01,08,16.80
2018,07,15,01,09,16.80
2018,07,15,01,10,16.80
2018,07,15,01,11,16.80
2018,07,15,01,12,16.70
2018,07,15,01,13,16.70
2018,07,15,01,14,16.70
2018,07,15,01,15,16.60
2018,07,15,01,16,16.60
2018,07,15,01,17,16.60
2018,07,15,01,18,16.60
2018,07,15,01,19,16.60
2018,07,15,01,20,16.50
2018,07,15,01,21,16.50
2018,07,15,01,22,16.40
2018,07,15,01,23,16.40
2018,07,15,01,24,16.40
2018,07,15,01,25,16.40
2018,07,15,01,26,16.30
2018,07,15,01,27,16.30
2018,07,15,01,28,16.20
2018,07,15,01,29,16.20
2018,07,15,01,30,16.20
2018,07,15,01,31,16.20
2018,07,15,01,32,16.20
2018,07,15,01,33,16.10
2018,07,15,01,34,16.10
2018,07,15,01,35,16.10
2018,07,15,01,36,16.10
2018,07,15,01,37,16.10
2018,07,15,01,38,16.10
2018,07,15,01,39,16.00
2018,07,15,01,40,16.00
2018,07,15,01,41,16.00
2018,07,15,01,42,16.00
2018,07,15,01,43,15.90
2018,07,15,01,44,15.90
2018,07,15,01,45,15.90
2018,07,15,01,46,15.80
2018,07,15,01,47,15.80
2018,07,15,01,48,15.80
2018,07,15,01,49,15.80
2018,07,15,01,50,15.80
2018,07,15,01,51,15.70
2018,07,15,01,52,15.70
2018,07,15,01,53,15.70
2018,07,15,01,54,15.70
2018,07,15,01,55,15.60
2018,07,15,01,56,15.60
2018,07,15,01,57,15.50
2018,07,15,01,58,15.50
2018,07,15,01,59,15.40
2018,07,15,02,00,15.40
2018,07,15,02,01,15.40
2018,07,15,02,02,15.30
2018,07,15,02,03,15.30
2018,07,15,02,04,15.30
2018,07,15,02,05,15.20
2018,07,15,02,06,15.20
2018,07,15,02,07,15.20
2018,07,15,02,08,15.20
2018,07,15,02,09,15.10
2018,07,15,02,10,15.10
2018,07,15,02,11,15.10
2018,07,15,02,12,15.00
2018,07,15,02,13,15.00
2018,07,15,02,14,15.00
2018,07,15,02,15,14.90
2018,07,15,02,16,14.90
2018,07,15,02,17,14.90
2018,07,15,02,18,14.80
2018,07,15,02,19,14.70
2018,07,15,02,20,14.60
2018,07,15,02,21,14.50
2018,07,15,02,22,14.40
2018,07,15,02,23,14.30
2018,07,15,02,24,14.30
2018,07,15,02,25,14.20
2018,07,15,02,26,14.20
2018,07,15,02,27,14.20
2018,07,15,02,28,14.10
2018,07,15,02,29,14.10
2018,07,15,02,30,14.00
2018,07,15,02,31,14.00
2018,07,15,02,32,13.90
2018,07,15,02,33,13.90
2018,07,15,02,34,13.90
2018,07,15,02,35,13.80
2018,07,15,02,36,13.80
2018,07,15,02,37,13.80
2018,07,15,02,38,13.80
2018,07,15,02,39,13.80
2018,07,15,02,40,13.70
2018,07,15,02,41,13.70
2018,07,15,02,42,13.70
2018,07,15,02,43,13.70
2018,07,15,02,44,13.70
2018,07,15,02,45,13.60
2018,07,15,02,46,13.60
2018,07,15,02,47,13.60
2018,07,15,02,48,13.60
2018,07,15,02,49,13.50
2018,07,15,02,50,13.50
2018,07,15,02,51,13.40
2018,07,15,02,52,13.40
2018,07,15,02,53,13.30
2018,07,15,02,54,13.30
2018,07,15,02,55,13.30
2018,07,15,02,56,13.30
2018,07,15,02,57,13.20
2018,07,15,02,58,13.20
2018,07,15,02,59,13.20
2018,07,15,03,00,13.20
2018,07,15,03,01,13.20
2018,07,15,03,02,13.20
2018,07,15,03,03,13.20
2018,07,15,03,04,13.20
2018,07,15,03,05,13.20
2018,07,15,03,06,13.20
2018,07,15,03,07,13.20
2018,07,15,03,08,13.20
2018,07,15,03,09,13.20
2018,07,15,03,10,13.20
2018,07,15,03,11,13.20
2018,07,15,03,12,13.20
2018,07,15,03,13,13.30
2018,07,15,03,14,13.30
2018,07,15,03,15,13.30
2018,07,15,03,16,13.30
2018,07,15,03,17,13.40
2018,07,15,03,18,13.40
2018,07,15,03,19,13.40
2018,07,15,03,20,13.40
2018,07,15,03,21,13.40
2018,07,15,03,22,13.40
2018,07,15,03,23,13.50
2018,07,15,03,24,13.50
2018,07,15,03,25,13.40
2018,07,15,03,26,13.40
2018,07,15,03,27,13.40
2018,07,15,03,28,13.40
2018,07,15,03,29,13.40
2018,07,15,03,30,13.40
2018,07,15,03,31,13.40
2018,07,15,03,32,13.40
2018,07,15,03,33,13.40
2018,07,15,03,34,13.40
2018,07,15,03,35,13.40
2018,07,15,03,36,13.40
2018,07,15,03,37,13.40
2018,07,15,03,38,13.40
2018,07,15,03,39,13.40
2018,07,15,03,40,13.40
2018,07,15,03,41,13.40
2018,07,15,03,42,13.30
2018,07,15,03,43,13.30
2018,07,15,03,44,13.30
2018,07,15,03,45,13.30
2018,07,15,03,46,13.30
2018,07,15,03,47,13.30
2018,07,15,03,48,13.20
2018,07,15,03,49,13.20
2018,07,15,03,50,13.20
2018,07,15,03,51,13.20
2018,07,15,03,52,13.20
2018,07,15,03,53,13.20
2018,07,15,03,54,13.10
2018,07,15,03,55,13.10
2018,07,15,03,56,13.10
2018,07,15,03,57,13.10
2018,07,15,03,58,13.10
2018,07,15,03,59,13.10
2018,07,15,04,00,13.10
2018,07,15,04,01,13.10
2018,07,15,04,02,13.10
2018,07,15,04,03,13.10
2018,07,15,04,04,13.10
2018,07,15,04,05,13.10
2018,07,15,04,06,13.10
2018,07,15,04,07,13.00
2018,07,15,04,08,13.00
2018,07,15,04,09,13.00
2018,07,15,04,10,13.00
2018,07,15,04,11,13.00
2018,07,15,04,12,12.90
2018,07,15,04,13,12.90
2018,07,15,04,14,12.90
2018,07,15,04,15,12.90
2018,07,15,04,16,12.90
2018,07,15,04,17,12.90
2018,07,15,04,18,12.90
2018,07,15,04,19,12.80
2018,07,15,04,20,12.80
2018,07,15,04,21,12.80
2018,07,15,04,22,12.80
2018,07,15,04,23,12.80
2018,07,15,04,24,12.80
2018,07,15,04,25,12.80
2018,07,15,04,26,12.80
2018,07,15,04,27,12.80
2018,07,15,04,28,12.80
2018,07,15,04,29,12.80
2018,07,15,04,30,12.80
2018,07,15,04,31,12.80
2018,07,15,04,32,12.80
2018,07,15,04,33,12.70
2018,07,15,04,34,12.70
2018,07,15,04,35,12.70
2018,07,15,04,36,12.70
2018,07,15,04,37,12.70
2018,07,15,04,38,12.70
2018,07,15,04,39,12.70
2018,07,15,04,40,12.70
2018,07,15,04,41,12.70
2018,07,15,04,42,12.70
2018,07,15,04,43,12.70
2018,07,15,04,44,12.70
2018,07,15,04,45,12.70
2018,07,15,04,46,12.70
2018,07,15,04,47,12.70
2018,07,15,04,48,12.70
2018,07,15,04,49,12.80
2018,07,15,04,50,12.70
2018,07,15,04,51,12.80
2018,07,15,04,52,12.70
2018,07,15,04,53,12.70
2018,07,15,04,54,12.70
2018,07,15,04,55,12.70
2018,07,15,04,56,12.70
2018,07,15,04,57,12.70
2018,07,15,04,58,12.70
2018,07,15,04,59,12.70
2018,07,15,05,00,12.70
2018,07,15,05,01,12.70
2018,07,15,05,02,12.80
2018,07,15,05,03,12.80
2018,07,15,05,04,12.80
2018,07,15,05,05,12.80
2018,07,15,05,06,12.80
2018,07,15,05,07,12.80
2018,07,15,05,08,12.80
2018,07,15,05,09,12.80
2018,07,15,05,10,12.80
2018,07,15,05,11,12.80
2018,07,15,05,12,12.80
2018,07,15,05,13,12.80
2018,07,15,05,14,12.70
2018,07,15,05,15,12.70
2018,07,15,05,16,12.80
2018,07,15,05,17,12.80
2018,07,15,05,18,12.80
2018,07,15,05,19,12.80
2018,07,15,05,20,12.70
2018,07,15,05,21,12.70
2018,07,15,05,22,12.70
2018,07,15,05,23,12.70
2018,07,15,05,24,12.70
2018,07,15,05,25,12.70
2018,07,15,05,26,12.70
2018,07,15,05,27,12.70
2018,07,15,05,28,12.60
2018,07,15,05,29,12.60
2018,07,15,05,30,12.60
2018,07,15,05,31,12.60
2018,07,15,05,32,12.60
2018,07,15,05,33,12.60
2018,07,15,05,34,12.60
2018,07,15,05,35,12.60
2018,07,15,05,36,12.60
2018,07,15,05,37,12.60
2018,07,15,05,38,12.60
2018,07,15,05,39,12.60
2018,07,15,05,40,12.50
2018,07,15,05,41,12.50
2018,07,15,05,42,12.50
2018,07,15,05,43,12.50
2018,07,15,05,44,12.50
2018,07,15,05,45,12.50
2018,07,15,05,46,12.50
2018,07,15,05,47,12.50
2018,07,15,05,48,12.40
2018,07,15,05,49,12.40
2018,07,15,05,50,12.40
2018,07,15,05,51,12.40
2018,07,15,05,52,12.40
2018,07,15,05,53,12.40
2018,07,15,05,54,12.40
2018,07,15,05,55,12.40
2018,07,15,05,56,12.30
2018,07,15,05,57,12.30
2018,07,15,05,58,12.30
2018,07,15,05,59,12.30
2018,07,15,06,00,12.30
2018,07,15,06,01,12.30
2018,07,15,06,02,12.30
2018,07,15,06,03,12.30
2018,07,15,06,04,12.40
2018,07,15,06,05,12.40
2018,07,15,06,06,12.40
2018,07,15,06,07,12.40
2018,07,15,06,08,12.40
2018,07,15,06,09,12.40
2018,07,15,06,10,12.40
2018,07,15,06,11,12.40
2018,07,15,06,12,12.40
2018,07,15,06,13,12.40
2018,07,15,06,14,12.50
2018,07,15,06,15,12.50
2018,07,15,06,16,12.60
2018,07,15,06,17,12.60
2018,07,15,06,18,12.70
2018,07,15,06,19,12.70
2018,07,15,06,20,12.80
2018,07,15,06,21,12.80
2018,07,15,06,22,12.90
2018,07,15,06,23,12.90
2018,07,15,06,24,12.90
2018,07,15,06,25,13.00
2018,07,15,06,26,13.00
2018,07,15,06,27,13.00
2018,07,15,06,28,13.00
2018,07,15,06,29,13.10
2018,07,15,06,30,13.10
2018,07,15,06,31,13.10
2018,07,15,06,32,13.10
2018,07,15,06,33,13.20
2018,07,15,06,34,13.20
2018,07,15,06,35,13.10
2018,07,15,06,36,13.10
2018,07,15,06,37,13.00
2018,07,15,06,38,13.00
2018,07,15,06,39,13.00
2018,07,15,06,40,13.00
2018,07,15,06,41,13.00
2018,07,15,06,42,13.00
2018,07,15,06,43,13.10
2018,07,15,06,44,13.10
2018,07,15,06,45,13.10
2018,07,15,06,46,13.20
2018,07,15,06,47,13.30
2018,07,15,06,48,13.40
2018,07,15,06,49,13.50
2018,07,15,06,50,13.60
2018,07,15,06,51,13.70
2018,07,15,06,52,13.80
2018,07,15,06,53,13.80
2018,07,15,06,54,13.90
2018,07,15,06,55,13.90
2018,07,15,06,56,14.00
2018,07,15,06,57,14.10
2018,07,15,06,58,14.20
2018,07,15,06,59,14.20
2018,07,15,07,00,14.30
2018,07,15,07,01,14.40
2018,07,15,07,02,14.50
2018,07,15,07,03,14.50
2018,07,15,07,04,14.60
2018,07,15,07,05,14.70
2018,07,15,07,06,14.70
2018,07,15,07,07,14.70
2018,07,15,07,08,14.80
2018,07,15,07,09,14.90
2018,07,15,07,10,14.90
2018,07,15,07,11,15.00
2018,07,15,07,12,15.10
2018,07,15,07,13,15.20
2018,07,15,07,14,15.30
2018,07,15,07,15,15.40
2018,07,15,07,16,15.50
2018,07,15,07,17,15.50
2018,07,15,07,18,15.60
2018,07,15,07,19,15.60
2018,07,15,07,20,15.70
2018,07,15,07,21,15.70
2018,07,15,07,22,15.80
2018,07,15,07,23,15.80
2018,07,15,07,24,15.80
2018,07,15,07,25,15.80
2018,07,15,07,26,15.80
2018,07,15,07,27,15.70
2018,07,15,07,28,15.70
2018,07,15,07,29,15.60
2018,07,15,07,30,15.60
2018,07,15,07,31,15.50
2018,07,15,07,32,15.50
2018,07,15,07,33,15.40
2018,07,15,07,34,15.40
2018,07,15,07,35,15.40
2018,07,15,07,36,15.30
2018,07,15,07,37,15.30
2018,07,15,07,38,15.30
2018,07,15,07,39,15.30
2018,07,15,07,40,15.30
2018,07,15,07,41,15.30
2018,07,15,07,42,15.30
2018,07,15,07,43,15.40
2018,07,15,07,44,15.50
2018,07,15,07,45,15.50
2018,07,15,07,46,15.60
2018,07,15,07,47,15.70
2018,07,15,07,48,15.80
2018,07,15,07,49,16.00
2018,07,15,07,50,16.10
2018,07,15,07,51,16.10
2018,07,15,07,52,16.10
2018,07,15,07,53,16.10
2018,07,15,07,54,16.10
2018,07,15,07,55,16.20
2018,07,15,07,56,16.20
2018,07,15,07,57,16.20
2018,07,15,07,58,16.20
2018,07,15,07,59,16.20
2018,07,15,08,00,16.20
2018,07,15,08,01,16.20
2018,07,15,08,02,16.30
2018,07,15,08,03,16.30
2018,07,15,08,04,16.30
2018,07,15,08,05,16.40
2018,07,15,08,06,16.40
2018,07,15,08,07,16.50
2018,07,15,08,08,16.60
2018,07,15,08,09,16.80
2018,07,15,08,10,16.90
2018,07,15,08,11,17.00
2018,07,15,08,12,17.20
2018,07,15,08,13,17.30
2018,07,15,08,14,17.40
2018,07,15,08,15,17.50
2018,07,15,08,16,17.60
2018,07,15,08,17,17.70
2018,07,15,08,18,17.90
2018,07,15,08,19,18.00
2018,07,15,08,20,18.10
2018,07,15,08,21,18.20
2018,07,15,08,22,18.30
2018,07,15,08,23,18.40
2018,07,15,08,24,18.50
2018,07,15,08,25,18.60
2018,07,15,08,26,18.70
2018,07,15,08,27,18.70
2018,07,15,08,28,18.80
2018,07,15,08,29,18.90
2018,07,15,08,30,19.00
2018,07,15,08,31,19.00
2018,07,15,08,32,19.10
2018,07,15,08,33,19.20
2018,07,15,08,34,19.30
2018,07,15,08,35,19.40
2018,07,15,08,36,19.40
2018,07,15,08,37,19.50
2018,07,15,08,38,19.60
2018,07,15,08,39,19.70
2018,07,15,08,40,19.80
2018,07,15,08,41,19.90
2018,07,15,08,42,20.00
2018,07,15,08,43,20.10
2018,07,15,08,44,20.20
2018,07,15,08,45,20.20
2018,07,15,08,46,20.30
2018,07,15,08,47,20.30
2018,07,15,08,48,20.40
2018,07,15,08,49,20.50
2018,07,15,08,50,20.50
2018,07,15,08,51,20.60
2018,07,15,08,52,20.70
2018,07,15,08,53,20.70
2018,07,15,08,54,20.80
2018,07,15,08,55,20.80
2018,07,15,08,56,20.90
2018,07,15,08,57,20.90
2018,07,15,08,58,21.00
2018,07,15,08,59,21.10
2018,07,15,09,00,21.10
2018,07,15,09,01,21.20
2018,07,15,09,02,21.20
2018,07,15,09,03,21.30
2018,07,15,09,04,21.30
2018,07,15,09,05,21.30
2018,07,15,09,06,21.30
2018,07,15,09,07,21.30
2018,07,15,09,08,21.40
2018,07,15,09,09,21.40
2018,07,15,09,10,21.40
2018,07,15,09,11,21.40
2018,07,15,09,12,21.40
2018,07,15,09,13,21.40
2018,07,15,09,14,21.40
2018,07,15,09,15,21.30
2018,07,15,09,16,21.30
2018,07,15,09,17,21.30
2018,07,15,09,18,21.30
2018,07,15,09,19,21.30
2018,07,15,09,20,21.30
2018,07,15,09,21,21.40
2018,07,15,09,22,21.40
2018,07,15,09,23,21.40
2018,07,15,09,24,21.40
2018,07,15,09,25,21.30
2018,07,15,09,26,21.30
2018,07,15,09,27,21.30
2018,07,15,09,28,21.20
2018,07,15,09,29,21.20
2018,07,15,09,30,21.20
2018,07,15,09,31,21.20
2018,07,15,09,32,21.20
2018,07,15,09,33,21.10
2018,07,15,09,34,21.10
2018,07,15,09,35,21.10
2018,07,15,09,36,21.10
2018,07,15,09,37,21.10
2018,07,15,09,38,21.10
2018,07,15,09,39,21.10
2018,07,15,09,40,21.10
2018,07,15,09,41,21.10
2018,07,15,09,42,21.10
2018,07,15,09,43,21.20
2018,07,15,09,44,21.20
2018,07,15,09,45,21.20
2018,07,15,09,46,21.20
2018,07,15,09,47,21.20
2018,07,15,09,48,21.10
2018,07,15,09,49,21.10
2018,07,15,09,50,21.10
2018,07,15,09,51,21.10
2018,07,15,09,52,21.10
2018,07,15,09,53,21.10
2018,07,15,09,54,21.10
2018,07,15,09,55,21.10
2018,07,15,09,56,21.10
2018,07,15,09,57,21.10
2018,07,15,09,58,21.20
2018,07,15,09,59,21.20
2018,07,15,10,00,21.20
2018,07,15,10,01,21.20
2018,07,15,10,02,21.30
2018,07,15,10,03,21.30
2018,07,15,10,04,21.40
2018,07,15,10,05,21.40
2018,07,15,10,06,21.50
2018,07,15,10,07,21.50
2018,07,15,10,08,21.50
2018,07,15,10,09,21.50
2018,07,15,10,10,21.50
2018,07,15,10,11,21.50
2018,07,15,10,12,21.50
2018,07,15,10,13,21.50
2018,07,15,10,14,21.50
2018,07,15,10,15,21.50
2018,07,15,10,16,21.50
2018,07,15,10,17,21.50
2018,07,15,10,18,21.50
2018,07,15,10,19,21.50
2018,07,15,10,20,21.40
2018,07,15,10,21,21.40
2018,07,15,10,22,21.40
2018,07,15,10,23,21.30
2018,07,15,10,24,21.30
2018,07,15,10,25,21.20
2018,07,15,10,26,21.20
2018,07,15,10,27,21.20
2018,07,15,10,28,21.20
2018,07,15,10,29,21.20
2018,07,15,10,30,21.10
2018,07,15,10,31,21.10
2018,07,15,10,32,21.10
2018,07,15,10,33,21.10
2018,07,15,10,34,21.00
2018,07,15,10,35,21.00
2018,07,15,10,36,21.00
2018,07,15,10,37,20.90
2018,07,15,10,38,20.90
2018,07,15,10,39,20.90
2018,07,15,10,40,21.00
2018,07,15,10,41,21.00
2018,07,15,10,42,21.10
2018,07,15,10,43,21.10
2018,07,15,10,44,21.20
2018,07,15,10,45,21.20
2018,07,15,10,46,21.20
2018,07,15,10,47,21.30
2018,07,15,10,48,21.30
2018,07,15,10,49,21.30
2018,07,15,10,50,21.40
2018,07,15,10,51,21.40
2018,07,15,10,52,21.40
2018,07,15,10,53,21.40
2018,07,15,10,54,21.50
2018,07,15,10,55,21.50
2018,07,15,10,56,21.60
2018,07,15,10,57,21.60
2018,07,15,10,58,21.60
2018,07,15,10,59,21.60
2018,07,15,11,00,21.60
2018,07,15,11,01,21.70
2018,07,15,11,02,21.70
2018,07,15,11,03,21.70
2018,07,15,11,04,21.70
2018,07,15,11,05,21.70
2018,07,15,11,06,21.80
2018,07,15,11,07,21.80
2018,07,15,11,08,21.80
2018,07,15,11,09,21.80
2018,07,15,11,10,21.80
2018,07,15,11,11,21.90
2018,07,15,11,12,21.90
2018,07,15,11,13,21.90
2018,07,15,11,14,22.00
2018,07,15,11,15,22.00
2018,07,15,11,16,22.00
2018,07,15,11,17,22.00
2018,07,15,11,18,22.00
2018,07,15,11,19,22.00
2018,07,15,11,20,22.10
2018,07,15,11,21,22.10
2018,07,15,11,22,22.10
2018,07,15,11,23,22.10
2018,07,15,11,24,22.10
2018,07,15,11,25,22.20
2018,07,15,11,26,22.20
2018,07,15,11,27,22.20
2018,07,15,11,28,22.30
2018,07,15,11,29,22.30
2018,07,15,11,30,22.30
2018,07,15,11,31,22.30
2018,07,15,11,32,22.30
2018,07,15,11,33,22.40
2018,07,15,11,34,22.40
2018,07,15,11,35,22.40
2018,07,15,11,36,22.50
2018,07,15,11,37,22.50
2018,07,15,11,38,22.50
2018,07,15,11,39,22.50
2018,07,15,11,40,22.50
2018,07,15,11,41,22.50
2018,07,15,11,42,22.50
2018,07,15,11,43,22.40
2018,07,15,11,44,22.40
2018,07,15,11,45,22.40
2018,07,15,11,46,22.40
2018,07,15,11,47,22.30
2018,07,15,11,48,22.30
2018,07,15,11,49,22.30
2018,07,15,11,50,22.30
2018,07,15,11,51,22.30
2018,07,15,11,52,22.30
2018,07,15,11,53,22.30
2018,07,15,11,54,22.30
2018,07,15,11,55,22.30
2018,07,15,11,56,22.40
2018,07,15,11,57,22.40
2018,07,15,11,58,22.40
2018,07,15,11,59,22.40
2018,07,15,12,00,22.40
2018,07,15,12,01,22.40
2018,07,15,12,02,22.40
2018,07,15,12,03,22.40
2018,07,15,12,04,22.40
2018,07,15,12,05,22.40
2018,07,15,12,06,22.40
2018,07,15,12,07,22.30
2018,07,15,12,08,22.30
2018,07,15,12,09,22.30
2018,07,15,12,10,22.20
2018,07,15,12,11,22.20
2018,07,15,12,12,22.20
2018,07,15,12,13,22.20
2018,07,15,12,14,22.20
2018,07,15,12,15,22.20
2018,07,15,12,16,22.20
2018,07,15,12,17,22.20
2018,07,15,12,18,22.20
2018,07,15,12,19,22.30
2018,07,15,12,20,22.30
2018,07,15,12,21,22.40
2018,07,15,12,22,22.40
2018,07,15,12,23,22.50
2018,07,15,12,24,22.50
2018,07,15,12,25,22.60
2018,07,15,12,26,22.60
2018,07,15,12,27,22.60
2018,07,15,12,28,22.70
2018,07,15,12,29,22.70
2018,07,15,12,30,22.70
2018,07,15,12,31,22.60
2018,07,15,12,32,22.60
2018,07,15,12,33,22.60
2018,07,15,12,34,22.60
2018,07,15,12,35,22.60
2018,07,15,12,36,22.60
2018,07,15,12,37,22.60
2018,07,15,12,38,22.60
2018,07,15,12,39,22.70
2018,07,15,12,40,22.70
2018,07,15,12,41,22.70
2018,07,15,12,42,22.80
2018,07,15,12,43,22.80
2018,07,15,12,44,22.80
2018,07,15,12,45,22.80
2018,07,15,12,46,22.90
2018,07,15,12,47,22.90
2018,07,15,12,48,22.90
2018,07,15,12,49,22.90
2018,07,15,12,50,23.00
2018,07,15,12,51,23.00
2018,07,15,12,52,23.00
2018,07,15,12,53,23.10
2018,07,15,12,54,23.10
2018,07,15,12,55,23.10
2018,07,15,12,56,23.10
2018,07,15,12,57,23.20
2018,07,15,12,58,23.20
2018,07,15,12,59,23.20
2018,07,15,13,00,23.20
2018,07,15,13,01,23.20
2018,07,15,13,02,23.30
2018,07,15,13,03,23.30
2018,07,15,13,04,23.30
2018,07,15,13,05,23.30
2018,07,15,13,06,23.40
2018,07,15,13,07,23.40
2018,07,15,13,08,23.40
2018,07,15,13,09,23.40
2018,07,15,13,10,23.50
2018,07,15,13,11,23.50
2018,07,15,13,12,23.50
2018,07,15,13,13,23.60
2018,07,15,13,14,23.60
2018,07,15,13,15,23.60
2018,07,15,13,16,23.60
2018,07,15,13,17,23.60
2018,07,15,13,18,23.60
2018,07,15,13,19,23.70
2018,07,15,13,20,23.70
2018,07,15,13,21,23.70
2018,07,15,13,22,23.70
2018,07,15,13,23,23.70
2018,07,15,13,24,23.70
2018,07,15,13,25,23.70
2018,07,15,13,26,23.70
2018,07,15,13,27,23.70
2018,07,15,13,28,23.70
2018,07,15,13,29,23.70
2018,07,15,13,30,23.70
2018,07,15,13,31,23.70
2018,07,15,13,32,23.70
2018,07,15,13,33,23.70
2018,07,15,13,34,23.60
2018,07,15,13,35,23.60
2018,07,15,13,36,23.60
2018,07,15,13,37,23.60
2018,07,15,13,38,23.60
2018,07,15,13,39,23.60
2018,07,15,13,40,23.60
2018,07,15,13,41,23.60
2018,07,15,13,42,23.60
2018,07,15,13,43,23.60
2018,07,15,13,44,23.70
2018,07,15,13,45,23.70
2018,07,15,13,46,23.80
2018,07,15,13,47,23.80
2018,07,15,13,48,23.80
2018,07,15,13,49,23.80
2018,07,15,13,50,23.80
2018,07,15,13,51,23.80
2018,07,15,13,52,23.80
2018,07,15,13,53,23.80
2018,07,15,13,54,23.80
2018,07,15,13,55,23.90
2018,07,15,13,56,23.90
2018,07,15,13,57,23.90
2018,07,15,13,58,23.90
2018,07,15,13,59,23.90
2018,07,15,14,00,23.90
2018,07,15,14,01,23.90
2018,07,15,14,02,24.00
2018,07,15,14,03,24.00
2018,07,15,14,04,24.00
2018,07,15,14,05,24.00
2018,07,15,14,06,24.00
2018,07,15,14,07,24.00
2018,07,15,14,08,24.00
2018,07,15,14,09,24.00
2018,07,15,14,10,24.00
2018,07,15,14,11,24.00
2018,07,15,14,12,24.00
2018,07,15,14,13,24.00
2018,07,15,14,14,24.10
2018,07,15,14,15,24.10
2018,07,15,14,16,24.10
2018,07,15,14,17,24.20
2018,07,15,14,18,24.20
2018,07,15,14,19,24.30
2018,07,15,14,20,24.30
2018,07,15,14,21,24.30
2018,07,15,14,22,24.40
2018,07,15,14,23,24.40
2018,07,15,14,24,24.50
2018,07,15,14,25,24.50
2018,07,15,14,26,24.50
2018,07,15,14,27,24.50
2018,07,15,14,28,24.50
2018,07,15,14,29,24.50
2018,07,15,14,30,24.50
2018,07,15,14,31,24.60
2018,07,15,14,32,24.70
2018,07,15,14,33,24.70
2018,07,15,14,34,24.70
2018,07,15,14,35,24.70
2018,07,15,14,36,24.70
2018,07,15,14,37,24.70
2018,07,15,14,38,24.70
2018,07,15,14,39,24.70
2018,07,15,14,40,24.70
2018,07,15,14,41,24.70
2018,07,15,14,42,24.70
2018,07,15,14,43,24.70
2018,07,15,14,44,24.70
2018,07,15,14,45,24.80
2018,07,15,14,46,24.80
2018,07,15,14,47,24.80
2018,07,15,14,48,24.80
2018,07,15,14,49,24.80
2018,07,15,14,50,24.80
2018,07,15,14,51,24.80
2018,07,15,14,52,24.80
2018,07,15,14,53,24.90
2018,07,15,14,54,24.90
2018,07,15,14,55,24.90
2018,07,15,14,56,24.90
2018,07,15,14,57,25.00
2018,07,15,14,58,25.00
2018,07,15,14,59,25.10
2018,07,15,15,00,25.10
2018,07,15,15,01,25.10
2018,07,15,15,02,25.10
2018,07,15,15,03,25.10
2018,07,15,15,04,25.10
2018,07,15,15,05,25.10
2018,07,15,15,06,25.10
2018,07,15,15,07,25.20
2018,07,15,15,08,25.20
2018,07,15,15,09,25.30
2018,07,15,15,10,25.30
2018,07,15,15,11,25.30
2018,07,15,15,12,25.30
2018,07,15,15,13,25.30
2018,07,15,15,14,25.30
2018,07,15,15,15,25.30
2018,07,15,15,16,25.30
2018,07,15,15,17,25.30
2018,07,15,15,18,25.30
2018,07,15,15,19,25.30
2018,07,15,15,20,25.30
2018,07,15,15,21,25.30
2018,07,15,15,22,25.30
2018,07,15,15,23,25.30
2018,07,15,15,24,25.30
2018,07,15,15,25,25.30
2018,07,15,15,26,25.30
2018,07,15,15,27,25.30
2018,07,15,15,28,25.40
2018,07,15,15,29,25.40
2018,07,15,15,30,25.40
2018,07,15,15,31,25.40
2018,07,15,15,32,25.40
2018,07,15,15,33,25.50
2018,07,15,15,34,25.50
2018,07,15,15,35,25.60
2018,07,15,15,36,25.60
2018,07,15,15,37,25.70
2018,07,15,15,38,25.80
2018,07,15,15,39,25.80
2018,07,15,15,40,25.80
2018,07,15,15,41,25.90
2018,07,15,15,42,25.90
2018,07,15,15,43,25.90
2018,07,15,15,44,26.00
2018,07,15,15,45,26.00
2018,07,15,15,46,26.10
2018,07,15,15,47,26.10
2018,07,15,15,48,26.10
2018,07,15,15,49,26.20
2018,07,15,15,50,26.20
2018,07,15,15,51,26.20
2018,07,15,15,52,26.20
2018,07,15,15,53,26.20
2018,07,15,15,54,26.20
2018,07,15,15,55,26.30
2018,07,15,15,56,26.30
2018,07,15,15,57,26.30
2018,07,15,15,58,26.30
2018,07,15,15,59,26.40
2018,07,15,16,00,26.40
2018,07,15,16,01,26.40
2018,07,15,16,02,26.50
2018,07,15,16,03,26.50
2018,07,15,16,04,26.60
2018,07,15,16,05,26.60
2018,07,15,16,06,26.70
2018,07,15,16,07,26.70
2018,07,15,16,08,26.70
2018,07,15,16,09,26.70
2018,07,15,16,10,26.80
2018,07,15,16,11,26.80
2018,07,15,16,12,26.80
2018,07,15,16,13,26.80
2018,07,15,16,14,26.90
2018,07,15,16,15,26.90
2018,07,15,16,16,27.00
2018,07,15,16,17,27.10
2018,07,15,16,18,27.10
2018,07,15,16,19,27.20
2018,07,15,16,20,27.20
2018,07,15,16,21,27.30
2018,07,15,16,22,27.30
2018,07,15,16,23,27.30
2018,07,15,16,24,27.10
2018,07,15,16,25,26.80
2018,07,15,16,26,26.50
2018,07,15,16,27,26.10
2018,07,15,16,28,25.70
2018,07,15,16,29,25.40
2018,07,15,16,30,25.10
2018,07,15,16,31,24.90
2018,07,15,16,32,24.70
2018,07,15,16,33,24.50
2018,07,15,16,34,24.30
2018,07,15,16,35,24.10
2018,07,15,16,36,24.00
2018,07,15,16,37,23.90
2018,07,15,16,38,23.60
2018,07,15,16,39,23.30
2018,07,15,16,40,23.10
2018,07,15,16,41,22.90
2018,07,15,16,42,22.80
2018,07,15,16,43,22.80
2018,07,15,16,44,22.70
2018,07,15,16,45,22.70
2018,07,15,16,46,22.70
2018,07,15,16,47,22.60
2018,07,15,16,48,22.60
2018,07,15,16,49,22.60
2018,07,15,16,50,22.70
2018,07,15,16,51,22.70
2018,07,15,16,52,22.80
2018,07,15,16,53,22.90
2018,07,15,16,54,22.90
2018,07,15,16,55,23.10
2018,07,15,16,56,23.10
2018,07,15,16,57,23.10
2018,07,15,16,58,23.10
2018,07,15,16,59,23.10
2018,07,15,17,00,23.10
2018,07,15,17,01,23.20
2018,07,15,17,02,23.20
2018,07,15,17,03,23.30
2018,07,15,17,04,23.30
2018,07,15,17,05,23.40
2018,07,15,17,06,23.50
2018,07,15,17,07,23.50
2018,07,15,17,08,23.60
2018,07,15,17,09,23.60
2018,07,15,17,10,23.50
2018,07,15,17,11,23.10
2018,07,15,17,12,22.70
2018,07,15,17,13,22.10
2018,07,15,17,14,21.50
2018,07,15,17,15,20.90
2018,07,15,17,16,20.50
2018,07,15,17,17,20.20
2018,07,15,17,18,20.10
2018,07,15,17,19,20.00